Terug naar catalogus

CZ-3B R/B

ActiefHEO
NORAD 41022·ROCKET BODY·🇨🇳 China

Gelanceerd Nov 3, 2015 vanaf Xichang Satellite Launch Center

Loading…

Volgende Passages (komende 24 uur)

TLE

VersSource: Space-Track

Epoch: Sep 13, 2026, 20:08 UTC

1 41022U 15063B   26256.83931576  .00017863  00000-0  12300-2 0  9990
2 41022  26.8280 127.6942 6105466 201.9231 113.2345  3.93126984112372

Volg CZ-3B R/B in realtime met AllMySat

Download on the App Store